| time (UTC) | temp F | wind direction | speed knots | gust knots | rain 1hr in | rain 24hr in | rain mn in | humidity % | barometer mb |
| 20260505001818 | 64 | 11 | 0.0 | 2.6 | 0.00 | 0.00 | 0.00 | 37 | 1018.0 |
| 20260505000618 | 61 | 198 | 2.6 | 6.1 | 0.00 | 0.00 | 0.00 | 36 | 1017.9 |
| 20260504235417 | 62 | 178 | 0.9 | 1.7 | 0.00 | 0.00 | 0.00 | 37 | 1018.1 |
| 20260504234218 | 62 | 113 | 4.3 | 7.0 | 0.00 | 0.00 | 0.00 | 38 | 1017.9 |
| 20260504233017 | 62 | 72 | 0.0 | 1.7 | 0.00 | 0.00 | 0.00 | 38 | 1018.3 |
| 20260504231818 | 62 | 108 | 2.6 | 6.1 | 0.00 | 0.00 | 0.00 | 38 | 1018.3 |
| 20260504230620 | 62 | 101 | 0.9 | 2.6 | 0.00 | 0.00 | 0.00 | 39 | 1018.4 |
| 20260504225418 | 59 | 5 | 0.9 | 4.3 | 0.00 | 0.00 | 0.00 | 43 | 1018.3 |
| 20260504223018 | 60 | 109 | 0.0 | 0.0 | 0.00 | 0.00 | 0.00 | 50 | 1018.4 |
| 20260504221817 | 56 | 91 | 0.9 | 4.3 | 0.00 | 0.00 | 0.00 | 57 | 1018.4 |
| 20260504220620 | 57 | 118 | 0.0 | 1.7 | 0.00 | 0.00 | 0.00 | 54 | 1018.0 |
| 20260504215418 | 55 | 240 | 0.9 | 2.6 | 0.00 | 0.00 | 0.00 | 56 | 1017.9 |
| 20260504214218 | 53 | 209 | 1.7 | 2.6 | 0.00 | 0.00 | 0.00 | 59 | 1017.5 |
| 20260504213017 | 52 | 243 | 1.7 | 4.3 | 0.00 | 0.00 | 0.00 | 60 | 1017.5 |
| 20260504211819 | 51 | 294 | 4.3 | 6.1 | 0.00 | 0.00 | 0.00 | 63 | 1017.2 |
| 20260504210620 | 51 | 247 | 4.3 | 5.2 | 0.00 | 0.00 | 0.00 | 64 | 1017.1 |
| 20260504205417 | 51 | 272 | 1.7 | 2.6 | 0.00 | 0.00 | 0.00 | 61 | 1017.0 |
| 20260504204217 | 49 | 268 | 1.7 | 4.3 | 0.00 | 0.00 | 0.00 | 64 | 1016.9 |
| 20260504203017 | 48 | 252 | 4.3 | 6.1 | 0.00 | 0.00 | 0.00 | 70 | 1016.5 |
| 20260504201817 | 47 | 267 | 4.3 | 5.2 | 0.00 | 0.00 | 0.00 | 73 | 1016.5 |
| 20260504200617 | 47 | 206 | 1.7 | 1.7 | 0.00 | 0.02 | 0.00 | 73 | 1016.1 |
| 20260504195417 | 46 | 276 | 2.6 | 4.3 | 0.00 | 0.02 | 0.00 | 72 | 1015.9 |
| 20260504194218 | 46 | 224 | 2.6 | 4.3 | 0.00 | 0.18 | 0.00 | 74 | 1015.5 |
| 20260504193017 | 47 | 280 | 0.9 | 1.7 | 0.00 | 0.18 | 0.00 | 75 | 1015.6 |
| 20260504191817 | 47 | 287 | 2.6 | 4.3 | 0.00 | 0.18 | 0.00 | 74 | 1015.6 |
| 20260504190619 | 47 | 223 | 2.6 | 4.3 | 0.00 | 0.18 | 0.00 | 72 | 1015.1 |
| 20260504185417 | 48 | 259 | 2.6 | 4.3 | 0.00 | 0.18 | 0.00 | 73 | 1015.2 |
| 20260504184218 | 49 | 210 | 2.6 | 4.3 | 0.00 | 0.18 | 0.00 | 72 | 1015.1 |
| 20260504183016 | 50 | 202 | 2.6 | 4.3 | 0.00 | 0.24 | 0.00 | 68 | 1014.8 |
| 20260504181818 | 51 | 226 | 0.9 | 0.9 | 0.00 | 0.24 | 0.00 | 63 | 1014.8 |
| 20260504180619 | 51 | 262 | 1.7 | 2.6 | 0.00 | 0.24 | 0.00 | 60 | 1014.6 |
| 20260504175419 | 53 | 304 | 5.2 | 8.7 | 0.00 | 0.25 | 0.00 | 54 | 1014.3 |
| 20260504174217 | 53 | 302 | 5.2 | 7.8 | 0.00 | 0.25 | 0.00 | 57 | 1014.0 |
| 20260504173016 | 53 | 273 | 2.6 | 5.2 | 0.00 | 0.25 | 0.00 | 57 | 1014.0 |
| 20260504171816 | 54 | 295 | 1.7 | 4.3 | 0.00 | 0.25 | 0.00 | 58 | 1013.9 |
| 20260504150617 | 57 | 285 | 7.8 | 12.2 | 0.00 | 0.25 | 0.00 | 56 | 1010.3 |
| 20260504140617 | 59 | 245 | 4.3 | 8.7 | 0.00 | 0.25 | 0.25 | 58 | 1008.9 |
| 20260504130618 | 56 | 107 | 0.0 | 0.0 | 0.00 | 0.25 | 0.25 | 71 | 1007.4 |
| 20260504110617 | 65 | 28 | 2.6 | 6.1 | 0.00 | 0.25 | 0.25 | 45 | 1003.6 |
| 20260504081816 | 73 | 22 | 1.7 | 5.2 | 0.00 | 0.25 | 0.25 | 43 | 997.1 |
| 20260504080616 | 74 | 337 | 10.4 | 17.4 | 0.00 | 0.25 | 0.25 | 42 | 996.6 |